Fort Patrick Henry Observed Data For Previous 48 Hours

Caption
Day and Hour Reservoir Elevation (behind dam)* Tailwater Elevation (below dam)* Average Hourly Discharge*
11/17/2017 2 AM EST 1,260.54 1,191.27 289
11/17/2017 3 AM EST 1,260.50 1,188.00 2,570
11/17/2017 4 AM EST 1,260.46 1,186.47 0
11/17/2017 5 AM EST 1,260.31 1,192.08 628
11/17/2017 6 AM EST 1,260.34 1,192.61 3,446
11/17/2017 7 AM EST 1,260.40 1,192.64 3,440
11/17/2017 8 AM EST 1,260.37 1,192.73 3,474
11/17/2017 9 AM EST 1,260.38 1,192.71 3,522
11/17/2017 10 AM EST 1,260.32 1,192.72 3,504
11/17/2017 11 AM EST 1,260.28 1,192.68 3,510
11/17/2017 12 PM EST 1,260.26 1,192.72 3,510
11/17/2017 1 PM EST 1,260.20 1,186.68 124
11/17/2017 2 PM EST 1,260.07 1,191.20 272
11/17/2017 3 PM EST 1,260.08 1,188.01 2,570
11/17/2017 4 PM EST 1,260.05 1,186.47 0
11/17/2017 5 PM EST 1,259.93 1,191.22 275
11/17/2017 6 PM EST 1,259.85 1,187.83 2,568
11/17/2017 7 PM EST 1,260.18 1,186.46 0
11/17/2017 8 PM EST 1,260.33 1,191.20 271
11/17/2017 9 PM EST 1,260.48 1,187.82 2,531
11/17/2017 10 PM EST 1,260.43 1,186.46 0
11/17/2017 11 PM EST 1,260.25 1,191.19 267
11/18/2017 12 AM EST 1,260.24 1,187.91 2,582
11/18/2017 1 AM EST 1,260.20 1,186.46 0
11/18/2017 2 AM EST 1,260.06 1,191.21 274
11/18/2017 3 AM EST 1,260.01 1,187.90 2,537
11/18/2017 4 AM EST 1,259.93 1,186.46 0
11/18/2017 5 AM EST 1,260.15 1,191.17 255
11/18/2017 6 AM EST 1,260.37 1,187.99 2,550
11/18/2017 7 AM EST 1,260.63 1,186.46 0
11/18/2017 8 AM EST 1,260.42 1,191.26 287
11/18/2017 9 AM EST 1,260.31 1,187.90 2,544
11/18/2017 10 AM EST 1,260.36 1,186.46 0
11/18/2017 11 AM EST 1,260.21 1,191.21 273
11/18/2017 12 PM EST 1,260.16 1,187.89 2,532
11/18/2017 1 PM EST 1,260.13 1,186.45 0
11/18/2017 2 PM EST 1,259.95 1,191.17 272
11/18/2017 3 PM EST 1,259.91 1,187.97 2,540
11/18/2017 4 PM EST 1,259.82 1,186.45 0
11/18/2017 5 PM EST 1,259.65 1,191.14 264
11/18/2017 6 PM EST 1,259.63 1,187.98 2,555
11/18/2017 7 PM EST 1,259.54 1,186.45 0
11/18/2017 8 PM EST 1,259.77 1,191.21 282
11/18/2017 9 PM EST 1,260.00 1,187.99 2,555
11/18/2017 10 PM EST 1,260.29 1,186.47 0
11/18/2017 11 PM EST 1,260.51 1,191.88 543
11/19/2017 12 AM EST 1,260.62 1,187.96 2,541
11/19/2017 1 AM EST 1,260.63 1,186.50 0
11/19/2017 2 AM EST 1,260.42 1,191.17 267
11/19/2017 3 AM EST 1,260.43 1,188.01 2,564
11/19/2017 4 AM EST 1,260.40 1,186.48 0

Elevations are in feet above sea level. Discharges are in cubic feet per second and are reported at the end of the hour.